Home > Weather > Hadera > Past weeks

Flag for Israel Past Weather in Hadera, Israel — Yesterday and Last 2 Weeks

Now
79 °F

Sunny.


Feels Like: 80 °F
Forecast: 69 / 84 °F
Wind: 5 mph from Northwest

Location: Dov Airport

Current Time: Jun 1, 2016 at 10:27:42 AM

Latest Report: Jun 1, 2016 at 9:50 AM


Visibility: 10 mi

Pressure: 29.95 "Hg

Humidity: 58%

Dew Point: 63 °F

Location of HaderaLocation

Past Weather in Hadera — Graph

°F

Hadera Temperature Yesterday

Maximum temperature yesterday: 79 °F (at 12:50 PM)
Minimum temperature yesterday: 66 °F (at 5:50 AM)
Average temperature yesterday: 75 °F

High & Low Weather Summary for the Past Weeks

 TemperatureHumidityPressure
High91 °F (May 22, 4:50 PM)83% (May 17, 8:50 AM)30.04 "Hg (May 17, 8:50 AM)
Low64 °F (May 20, 5:50 AM)11% (May 22, 4:50 PM)29.74 "Hg (May 22, 5:50 PM)
Average74 °F64%29.93 "Hg
* Reported May 17 8:50 AM — Jun 1 8:50 AM, Hadera, Weather by CustomWeather, © 2016

Note: Actual official high and low records may vary slightly from our data, if they occured in-between our weather recording intervals... More about our weather records

Advertising

Hadera Weather History for the Previous 24 Hours

Scroll right to see more
 ConditionsComfort  
Time TempWeatherWind HumidityBarometerVisibility
8:50 AM
Wed, Jun 1
79 °FSunny.3 mph51%29.95 "Hg10 mi
7:50 AM77 °FSunny.2 mph51%29.95 "Hg10 mi
6:50 AM72 °FSunny.5 mph69%29.95 "Hg10 mi
5:50 AM70 °FClear.3 mph69%29.95 "Hg10 mi
10:50 PM
Tue, May 31
72 °FClear.2 mph78%29.98 "Hg10 mi
9:50 PM73 °FPassing clouds.2 mph78%30.01 "HgN/A
8:50 PM73 °FPassing clouds.6 mph83%30.01 "HgN/A
7:50 PM75 °FScattered clouds.9 mph78%30.01 "HgN/A
6:50 PM75 °FSunny.13 mph78%30.01 "Hg10 mi
5:50 PM77 °FSunny.12 mph74%29.98 "Hg10 mi
4:50 PM77 °FSunny.12 mph74%29.98 "Hg10 mi
3:50 PM79 °FSunny.13 mph65%29.98 "Hg10 mi
2:50 PM79 °FSunny.9 mph65%29.98 "Hg10 mi
1:50 PM79 °FSunny.10 mph61%30.01 "Hg10 mi
12:50 PM79 °FSunny.10 mph61%30.01 "Hg10 mi
11:50 AM77 °FSunny.10 mph65%30.04 "Hg10 mi
10:50 AM77 °FSunny.9 mph65%30.04 "Hg10 mi
Weather by CustomWeather, © 2016

See weather overviewHow to use our weather pages